When you browse on this site, cookies collect data to enhance your experience and personalize the content and advertising you see.
Visit our Privacy Policy to learn more. By continuing to use the site, you agree to this use of cookies and data.
  • In Österreich
  • Länderverzeichnis
  • Für 7 Tage
  • Wassertemperatur
  • Satellitenkarten
  • Wetterkarte
  • News
  • Widgets
  • user-avatar
    Anmelden

    Stündliche Wetter Siercz

    Heute, 20 Februar, Mittwoch

    Zeit Temperatur Niederschläge Wind Luftdruck Luftfeuchtigkeit
    00:00 +3°C° 0 mm 5 m/S 757 mmHg 83%
    01:00 +4°C° 0 mm 4 m/S 757 mmHg 88%
    02:00 +3°C° 0 mm 4 m/S 757 mmHg 88%
    03:00 +3°C° 0 mm 4 m/S 757 mmHg 89%
    04:00 +2°C° 0 mm 5 m/S 757 mmHg 89%
    05:00 +2°C° 0 mm 5 m/S 757 mmHg 88%
    06:00 +2°C° 0 mm 5 m/S 757 mmHg 86%
    07:00 +3°C° 0 mm 5 m/S 758 mmHg 85%
    08:00 +3°C° 0 mm 5 m/S 758 mmHg 82%
    09:00 +3°C° 0 mm 5 m/S 759 mmHg 80%
    10:00 +5°C° 0 mm 5 m/S 759 mmHg 78%
    11:00 +5°C° 0 mm 5 m/S 759 mmHg 76%
    12:00 +5°C° 0 mm 5 m/S 760 mmHg 74%
    13:00 +6°C° 0 mm 5 m/S 760 mmHg 72%
    14:00 +6°C° 0 mm 4 m/S 760 mmHg 72%
    15:00 +7°C° 0 mm 3 m/S 760 mmHg 72%
    16:00 +7°C° 0 mm 3 m/S 760 mmHg 72%
    17:00 +7°C° 0 mm 2 m/S 761 mmHg 75%
    18:00 +7°C° 0 mm 2 m/S 761 mmHg 77%
    19:00 +6°C° 0 mm 2 m/S 761 mmHg 79%
    20:00 +6°C° 0 mm 2 m/S 761 mmHg 81%
    21:00 +6°C° 0 mm 2 m/S 762 mmHg 82%
    22:00 +5°C° 0 mm 3 m/S 762 mmHg 83%
    23:00 +6°C° 0 mm 2 m/S 762 mmHg 86%

    Morgen, 21 Februar, Donnerstag

    Zeit Temperatur Niederschläge Wind Luftdruck Luftfeuchtigkeit
    00:00 +5°C° 0 mm 2 m/S 762 mmHg 88%
    01:00 +5°C° 0 mm 2 m/S 762 mmHg 90%
    02:00 +4°C° 0 mm 3 m/S 762 mmHg 88%
    03:00 +4°C° 0 mm 3 m/S 762 mmHg 86%
    04:00 +4°C° 0 mm 3 m/S 762 mmHg 83%
    05:00 +4°C° 0.1 mm 3 m/S 761 mmHg 83%
    06:00 +4°C° 0.1 mm 4 m/S 761 mmHg 83%
    07:00 +4°C° 0.1 mm 4 m/S 761 mmHg 83%
    08:00 +5°C° 0.3 mm 4 m/S 761 mmHg 83%
    09:00 +5°C° 0.3 mm 5 m/S 761 mmHg 82%
    10:00 +5°C° 0.3 mm 5 m/S 761 mmHg 81%
    11:00 +4°C° 0.7 mm 6 m/S 761 mmHg 82%
    12:00 +4°C° 0.7 mm 6 m/S 761 mmHg 83%
    13:00 +5°C° 0.7 mm 6 m/S 761 mmHg 84%
    14:00 +5°C° 0.6 mm 6 m/S 760 mmHg 84%
    15:00 +5°C° 0.6 mm 6 m/S 760 mmHg 85%
    16:00 +6°C° 0.6 mm 5 m/S 760 mmHg 85%
    17:00 +6°C° 0.2 mm 5 m/S 760 mmHg 86%
    18:00 +7°C° 0.2 mm 5 m/S 760 mmHg 87%
    19:00 +7°C° 0.2 mm 5 m/S 760 mmHg 88%
    20:00 +7°C° 0.3 mm 5 m/S 760 mmHg 89%
    21:00 +7°C° 0.3 mm 5 m/S 760 mmHg 89%
    22:00 +7°C° 0.3 mm 5 m/S 760 mmHg 90%
    23:00 +7°C° 0.2 mm 5 m/S 760 mmHg 89%

    übermorgen, 22 Februar, Freitag

    Zeit Temperatur Niederschläge Wind Luftdruck Luftfeuchtigkeit
    00:00 +7°C° 0.2 mm 5 m/S 761 mmHg 89%
    01:00 +7°C° 0.2 mm 5 m/S 761 mmHg 88%
    02:00 +7°C° 0.1 mm 5 m/S 762 mmHg 88%
    03:00 +6°C° 0.1 mm 5 m/S 762 mmHg 87%
    04:00 +5°C° 0.1 mm 6 m/S 763 mmHg 86%
    05:00 +4°C° 0.1 mm 6 m/S 764 mmHg 84%
    06:00 +2°C° 0.1 mm 6 m/S 765 mmHg 82%
    07:00 +1°C° 0.1 mm 6 m/S 766 mmHg 79%
    08:00 -1°C° 0 mm 6 m/S 767 mmHg 73%
    09:00 0°C° 0 mm 5 m/S 768 mmHg 68%
    10:00 0°C° 0 mm 5 m/S 770 mmHg 62%
    11:00 0°C° 0 mm 4 m/S 770 mmHg 57%
    12:00 +1°C° 0 mm 4 m/S 771 mmHg 51%
    13:00 +3°C° 0 mm 4 m/S 772 mmHg 46%
    14:00 +1°C° 0 mm 4 m/S 772 mmHg 46%
    15:00 +1°C° 0 mm 4 m/S 773 mmHg 46%
    16:00 +2°C° 0 mm 3 m/S 773 mmHg 46%
    17:00 +1°C° 0 mm 3 m/S 774 mmHg 50%
    18:00 0°C° 0 mm 3 m/S 774 mmHg 54%
    19:00 -1°C° 0 mm 2 m/S 775 mmHg 58%
    20:00 -1°C° 0 mm 2 m/S 775 mmHg 57%
    21:00 -2°C° 0 mm 2 m/S 775 mmHg 57%
    22:00 -2°C° 0 mm 2 m/S 776 mmHg 57%
    23:00 -3°C° 0 mm 2 m/S 776 mmHg 55%

    23 Februar, Samstag

    Zeit Temperatur Niederschläge Wind Luftdruck Luftfeuchtigkeit
    00:00 -4°C° 0 mm 3 m/S 776 mmHg 54%
    01:00 -4°C° 0 mm 3 m/S 776 mmHg 52%
    02:00 -3°C° 0 mm 2 m/S 776 mmHg 51%
    03:00 -3°C° 0 mm 2 m/S 776 mmHg 50%
    04:00 -3°C° 0 mm 2 m/S 776 mmHg 48%
    05:00 -3°C° 0 mm 2 m/S 776 mmHg 48%
    06:00 -3°C° 0 mm 2 m/S 776 mmHg 47%
    07:00 -3°C° 0 mm 2 m/S 777 mmHg 47%
    08:00 -3°C° 0 mm 2 m/S 777 mmHg 42%
    09:00 -2°C° 0 mm 2 m/S 777 mmHg 37%
    10:00 -1°C° 0 mm 2 m/S 777 mmHg 33%
    11:00 +1°C° 0 mm 2 m/S 777 mmHg 30%
    12:00 +1°C° 0 mm 2 m/S 777 mmHg 27%
    13:00 +2°C° 0 mm 2 m/S 777 mmHg 25%
    14:00 +3°C° 0 mm 1 m/S 776 mmHg 26%
    15:00 +3°C° 0 mm 1 m/S 776 mmHg 27%
    16:00 +3°C° 0 mm 1 m/S 776 mmHg 28%
    17:00 +2°C° 0 mm 1 m/S 776 mmHg 31%
    18:00 +2°C° 0 mm 1 m/S 775 mmHg 33%
    19:00 +1°C° 0 mm 1 m/S 775 mmHg 36%
    20:00 0°C° 0 mm 1 m/S 775 mmHg 37%
    21:00 0°C° 0 mm 1 m/S 775 mmHg 37%
    22:00 0°C° 0 mm 1 m/S 775 mmHg 38%
    23:00 0°C° 0 mm 1 m/S 775 mmHg 38%

    24 Februar, Sonntag

    Zeit Temperatur Niederschläge Wind Luftdruck Luftfeuchtigkeit
    00:00 0°C° 0 mm 1 m/S 775 mmHg 38%
    01:00 0°C° 0 mm 1 m/S 775 mmHg 38%
    02:00 0°C° 0 mm 1 m/S 775 mmHg 37%
    03:00 -1°C° 0 mm 0 m/S 774 mmHg 37%
    04:00 -1°C° 0 mm 0 m/S 774 mmHg 36%
    05:00 -1°C° 0 mm 0 m/S 774 mmHg 36%
    06:00 -1°C° 0 mm 0 m/S 774 mmHg 35%
    07:00 -1°C° 0 mm 0 m/S 774 mmHg 35%
    08:00 0°C° 0 mm 0 m/S 774 mmHg 32%
    09:00 +1°C° 0 mm 0 m/S 774 mmHg 30%
    10:00 +2°C° 0 mm 0 m/S 774 mmHg 27%
    11:00 +4°C° 0 mm 1 m/S 774 mmHg 26%
    12:00 +5°C° 0 mm 1 m/S 774 mmHg 26%
    13:00 +6°C° 0 mm 1 m/S 773 mmHg 26%
    14:00 +6°C° 0 mm 1 m/S 773 mmHg 30%
    15:00 +6°C° 0 mm 1 m/S 773 mmHg 34%
    16:00 +6°C° 0 mm 1 m/S 773 mmHg 39%
    17:00 +5°C° 0 mm 1 m/S 773 mmHg 41%
    18:00 +3°C° 0 mm 1 m/S 773 mmHg 44%
    19:00 +2°C° 0 mm 1 m/S 773 mmHg 47%
    20:00 +2°C° 0 mm 1 m/S 773 mmHg 48%
    21:00 +2°C° 0 mm 1 m/S 773 mmHg 50%
    22:00 +2°C° 0 mm 1 m/S 773 mmHg 51%
    23:00 +2°C° 0 mm 1 m/S 773 mmHg 53%

    25 Februar, Montag

    Zeit Temperatur Niederschläge Wind Luftdruck Luftfeuchtigkeit
    00:00 +2°C° 0 mm 1 m/S 773 mmHg 54%
    01:00 +2°C° 0 mm 1 m/S 773 mmHg 56%
    02:00 +2°C° 0 mm 1 m/S 773 mmHg 56%
    03:00 +1°C° 0 mm 2 m/S 773 mmHg 57%
    04:00 +1°C° 0 mm 2 m/S 772 mmHg 58%
    05:00 +1°C° 0 mm 2 m/S 773 mmHg 60%
    06:00 +1°C° 0 mm 2 m/S 773 mmHg 61%
    07:00 -1°C° 0 mm 2 m/S 773 mmHg 63%
    08:00 +2°C° 0 mm 2 m/S 773 mmHg 61%
    09:00 +3°C° 0 mm 2 m/S 773 mmHg 58%
    10:00 +3°C° 0 mm 3 m/S 773 mmHg 56%
    11:00 +5°C° 0 mm 3 m/S 773 mmHg 57%
    12:00 +7°C° 0 mm 3 m/S 773 mmHg 58%
    13:00 +8°C° 0 mm 3 m/S 773 mmHg 60%
    14:00 +8°C° 0 mm 3 m/S 773 mmHg 62%
    15:00 +8°C° 0 mm 2 m/S 772 mmHg 65%
    16:00 +9°C° 0 mm 2 m/S 772 mmHg 67%
    17:00 +7°C° 0 mm 2 m/S 773 mmHg 73%
    18:00 +6°C° 0 mm 2 m/S 773 mmHg 78%
    19:00 +5°C° 0 mm 2 m/S 773 mmHg 84%
    20:00 +5°C° 0 mm 1 m/S 773 mmHg 84%
    21:00 +5°C° 0 mm 1 m/S 773 mmHg 84%
    22:00 +4°C° 0 mm 1 m/S 773 mmHg 85%
    23:00 +4°C° 0 mm 1 m/S 773 mmHg 84%
    Mehr zeigen